Vertical_Velocity
-5 -4 -4 -1 2 -2 -5 -3 -5 -2 -0 3 -1 -2 -1 -0 -2 3 -0 -1 0 0 -3 1 -0 -2 -0 -3 1 2 2 -1 -1 1 -2 -3 -3 -4 -3 -8 -4 -2 -1 -3 -3
-9 -5 0 -6 -5 -1 -9 -3 1 -2 -6 -8 2 -4 -2 0 -3 0 0 3 -1 4 -5 -0 3 2 -0 -3 -2 3 1 1 -1 -3 0 -1 -2 -2 -11 -2 -0 1 -0 -4 -8
0 0 -4 -3 1 -5 -4 -1 -2 0 -2 -14 -3 4 -8 4 -1 1 -1 5 -5 4 -2 -3 1 5 -1 -2 -1 -2 1 -2 -1 0 -3 -1 0 -4 -0 -4 -0 -3 -2 -4 -6
-1 -1 0 -2 -4 2 -2 -4 -1 0 -2 3 3 6 -6 3 -4 2 -3 6 -5 3 -1 -1 0 1 -0 -1 -1 0 -1 -1 2 -2 -1 1 -3 -3 -2 1 -8 -1 -3 -2 -6
-0 0 0 3 -1 -1 -2 -4 -4 4 -7 -2 2 5 0 -0 0 -1 6 -0 -2 3 -0 -4 -5 2 -3 1 -0 -5 2 3 1 -2 -1 -1 2 -4 4 -4 -3 -5 -0 -2 -5
9 2 0 -2 1 -1 -2 6 10 7 5 -8 5 2 -1 1 1 1 -1 -4 2 -1 -3 -2 -4 -1 -3 -1 -5 -4 -1 1 -1 2 -1 -1 3 -2 -1 -2 -2 -2 -2 -1 -2
-2 3 1 -1 2 2 8 7 3 1 1 9 -4 11 -8 3 1 -2 2 -1 -3 1 -2 -3 -2 -1 -2 -1 -0 -2 -8 2 2 -0 4 -2 -3 -2 -1 1 -4 -2 -3 -0 1
-2 1 -0 -4 -1 -1 3 10 6 -1 -2 5 1 -9 1 -2 -2 2 -2 -3 -3 1 0 -2 -3 -4 -3 -3 -5 -2 -2 -0 1 3 -1 -4 4 4 -2 -2 1 -3 -8 -5 -1
-6 -3 -1 0 -3 -2 12 -2 -0 -7 -4 -3 -4 5 -2 0 -3 -0 -0 0 1 -2 -7 -6 -3 1 3 -2 -4 1 3 1 -5 1 -2 1 -1 6 -1 -4 -5 -5 -7 -10 -9
-11 2 -3 -2 -4 -2 -2 -3 -0 6 -0 1 2 3 1 -2 -3 -2 -2 2 -4 -1 1 2 4 -6 -1 3 2 -1 -4 -1 -0 4 -5 4 1 1 3 -3 -5 -8 -8 -9 -10
8 -10 -3 -0 -6 -6 -2 -8 -5 -2 4 -2 0 -6 -4 -2 2 -2 -3 -2 0 -0 -1 -3 3 5 3 -0 1 2 1 -2 -3 9 -8 2 -9 1 2 1 2 0 -1 -3 -8
-6 -3 3 -3 4 3 -2 -1 -2 -4 -6 -5 -1 -1 -1 -2 -3 -3 0 0 -1 2 -1 1 1 1 -2 2 3 -1 -1 -1 -7 0 2 3 -7 3 1 1 -2 -2 1 -5 -8
-10 -12 4 -12 -20 -12 -0 -5 -8 -2 -2 -3 -3 -2 -2 -1 -2 -1 1 2 1 1 2 0 4 1 -0 3 2 4 4 -0 -0 -5 3 -4 0 3 4 1 2 8 5 5 1
-0 -3 -8 -1 2 -3 -3 -6 -4 -1 -3 0 -2 -1 -2 -0 -1 -1 -1 2 1 1 1 -1 -2 -3 -2 -1 -2 2 -2 -1 1 -3 9 -8 3 -0 -6 -1 1 1 -2 0 -2
1 2 5 -8 -3 -6 3 1 -1 -2 -3 -1 -4 -2 -3 -1 2 -0 0 -1 2 2 0 1 2 0 0 0 2 -0 0 -2 0 0 -0 1 1 2 -2 -6 -6 -1 -2 -0 6
-4 -1 -2 4 2 -4 -1 -6 2 2 -3 -2 -0 -1 -1 -2 -2 -1 -2 -0 1 1 -0 0 1 -0 1 -0 1 1 -1 -1 -0 -1 5 -1 -0 4 -7 -9 -1 2 2 5 2
-4 -0 -4 -2 -1 0 4 -2 -5 -4 2 1 -0 -1 -1 -0 -1 1 -0 -3 -3 -1 -2 -1 -2 -1 0 2 -1 -3 -0 3 4 4 4 -2 2 -4 -2 -7 -0 -2 1 6 -4
-2 -4 -6 -1 1 0 3 -1 -7 -3 -3 -4 -1 -1 -1 -1 -0 -1 0 1 -0 -1 -3 -3 3 -0 0 1 0 -0 -2 2 2 1 2 -4 3 -1 -1 -1 -1 3 -1 1 -3
-1 -1 -2 -2 -1 -1 -5 1 -4 -4 -1 -2 -1 -0 1 -1 -1 -2 -1 -1 -2 -2 1 -1 -1 -1 -1 -2 -1 0 1 -4 -0 -3 3 -2 -2 -2 -0 6 0 -2 -6 -7 -1
-1 1 -2 -1 -4 -3 -1 -7 -7 -4 -4 -2 -2 -4 -5 -2 -1 -1 -2 -1 -1 0 -2 -1 -1 0 -3 -2 -1 -2 -1 0 -2 2 -0 0 -2 2 1 1 -1 -4 -4 -2 3
1 -3 4 0 -6 -4 -0 -4 -4 -1 -1 1 -2 -0 2 -1 -1 -2 -1 -3 -2 -2 -1 -1 -0 3 1 -0 1 1 0 -2 -4 1 3 1 3 -2 -0 -1 -1 -5 -6 -4 -0
2 3 -3 -4 -0 2 -4 -0 1 -1 -3 -3 1 3 3 1 3 -0 -1 -1 -0 -2 -1 -0 -1 -3 1 0 1 -0 0 1 0 -1 -1 1 1 1 -1 -0 1 -1 1 1 -2
-1 2 4 1 -0 -2 -3 -7 -2 2 -2 -0 0 -1 -3 -0 1 -0 1 2 0 1 -2 -1 -0 -3 -2 -2 -0 -0 1 0 -1 -1 -4 3 3 1 -1 -0 -0 -0 -1 -1 -2
-2 -2 -3 2 -2 1 2 -1 -3 1 1 -1 -0 -4 -1 -1 -1 -2 -1 -1 -0 1 3 0 -2 0 -0 -2 1 1 1 0 2 0 -1 -6 -10 4 -1 -0 -2 -1 -1 1 -0
-1 -4 -1 -1 1 1 -3 -1 -1 -1 2 4 -1 1 0 -2 -2 -1 -0 -2 -2 -3 -1 2 -1 -2 -0 0 -2 0 2 1 -1 2 -2 -2 -5 -5 -2 -1 -1 -3 -2 -3 -1
1 2 -3 -4 -4 -0 2 -3 1 -3 -4 -1 5 2 2 -1 -0 -1 1 2 1 -1 -3 -1 -2 1 -2 -2 -0 -4 -2 -1 1 0 -3 2 -2 -6 -3 -2 -1 -2 -4 -3 -2
2 -1 2 2 -1 -1 1 3 -3 -2 0 1 -1 2 0 3 2 -1 -1 0 -1 1 2 1 -0 -0 -0 0 -1 -4 -3 -5 -4 -0 1 -0 1 3 1 -4 -3 -4 -2 -6 -2
Height
3027 3025 3024 3024 3024 3025 3027 3031 3036 3047 3055 3060 3066 3070 3073 3077 3080 3082 3084 3086 3087 3089 3090 3092 3094 3095 3096 3098 3099 3099 3101 3101 3101 3101 3099 3099 3100 3101 3101 3101 3101 3103 3102 3103 3103
3024 3022 3020 3020 3022 3023 3027 3028 3033 3045 3053 3058 3064 3069 3073 3076 3080 3082 3084 3084 3085 3087 3090 3091 3093 3094 3095 3096 3097 3097 3098 3098 3097 3097 3096 3095 3096 3095 3098 3098 3100 3096 3095 3093 3094
3021 3019 3019 3018 3020 3023 3026 3028 3034 3043 3053 3058 3064 3069 3073 3076 3080 3081 3083 3084 3085 3087 3089 3089 3091 3092 3092 3093 3094 3094 3095 3094 3095 3094 3092 3094 3093 3092 3092 3094 3092 3089 3090 3088 3088
3018 3018 3017 3018 3020 3022 3025 3029 3036 3045 3053 3059 3065 3069 3074 3077 3084 3081 3083 3084 3084 3086 3087 3088 3089 3090 3090 3091 3090 3092 3091 3091 3092 3090 3090 3090 3090 3089 3086 3086 3086 3085 3083 3083 3083
3019 3019 3018 3019 3020 3024 3027 3033 3041 3048 3055 3060 3066 3071 3076 3078 3081 3082 3083 3084 3085 3086 3086 3087 3088 3088 3088 3088 3087 3088 3089 3088 3088 3088 3086 3086 3086 3083 3083 3081 3082 3080 3079 3077 3076
3020 3022 3022 3023 3025 3027 3031 3039 3045 3050 3057 3063 3068 3072 3076 3080 3080 3082 3083 3085 3085 3086 3086 3087 3087 3087 3087 3087 3087 3087 3086 3085 3085 3085 3083 3082 3081 3079 3080 3079 3078 3075 3074 3072 3070
3029 3027 3027 3027 3030 3034 3038 3044 3049 3055 3061 3067 3070 3072 3076 3080 3081 3083 3084 3085 3086 3086 3087 3087 3087 3086 3085 3085 3084 3083 3083 3083 3082 3082 3080 3079 3078 3078 3078 3075 3073 3071 3069 3067 3064
3036 3035 3034 3035 3037 3042 3045 3048 3055 3060 3065 3070 3074 3076 3078 3080 3082 3084 3086 3086 3087 3086 3085 3084 3083 3084 3085 3084 3082 3082 3081 3081 3080 3078 3077 3078 3080 3077 3073 3071 3068 3065 3063 3058 3055
3042 3044 3045 3045 3047 3049 3051 3058 3063 3067 3071 3076 3076 3080 3081 3083 3085 3086 3087 3087 3086 3085 3084 3083 3083 3083 3083 3082 3081 3080 3080 3079 3077 3076 3076 3077 3073 3072 3069 3066 3063 3059 3055 3050 3045
3051 3050 3054 3056 3057 3059 3064 3068 3070 3073 3077 3078 3081 3086 3086 3087 3087 3087 3088 3086 3085 3084 3084 3083 3082 3082 3081 3080 3080 3079 3078 3076 3074 3076 3073 3071 3069 3067 3065 3061 3057 3052 3048 3042 3034
3059 3056 3055 3061 3066 3069 3070 3073 3077 3081 3081 3082 3086 3087 3088 3089 3089 3089 3088 3086 3085 3084 3083 3082 3082 3081 3080 3078 3077 3076 3074 3073 3072 3072 3068 3066 3063 3063 3061 3058 3053 3047 3040 3031 3025
3071 3069 3063 3063 3069 3074 3077 3077 3078 3083 3085 3087 3088 3090 3090 3090 3090 3089 3088 3087 3084 3082 3081 3082 3080 3079 3076 3075 3074 3073 3072 3070 3068 3066 3064 3062 3060 3059 3058 3055 3047 3039 3033 3024 3017
3082 3079 3084 3083 3078 3078 3082 3085 3084 3085 3087 3092 3092 3093 3093 3091 3090 3088 3086 3084 3082 3080 3080 3079 3079 3076 3074 3073 3072 3070 3068 3066 3065 3062 3060 3058 3058 3057 3056 3051 3044 3037 3029 3019 3011
3090 3092 3088 3090 3093 3090 3091 3092 3091 3092 3093 3099 3096 3095 3094 3091 3091 3088 3086 3084 3080 3079 3077 3077 3076 3074 3073 3070 3069 3067 3064 3062 3061 3062 3059 3058 3054 3054 3050 3046 3040 3032 3023 3015 3007
3101 3097 3097 3098 3097 3095 3096 3094 3094 3093 3098 3102 3099 3097 3094 3094 3093 3088 3086 3081 3079 3077 3077 3077 3073 3072 3070 3068 3065 3064 3058 3059 3059 3060 3059 3058 3058 3053 3048 3040 3034 3028 3021 3015 3008
3108 3107 3102 3101 3100 3098 3098 3095 3093 3096 3100 3101 3099 3097 3095 3092 3090 3087 3084 3081 3077 3075 3074 3073 3071 3070 3068 3065 3063 3061 3060 3059 3059 3059 3057 3056 3056 3050 3046 3041 3034 3028 3022 3013 3006
3113 3109 3107 3105 3102 3098 3097 3096 3096 3096 3104 3103 3100 3096 3094 3091 3089 3086 3083 3080 3077 3075 3074 3072 3071 3069 3068 3065 3063 3062 3062 3060 3059 3056 3051 3054 3053 3051 3048 3042 3035 3027 3019 3012 3007
3115 3112 3108 3105 3103 3099 3097 3098 3096 3104 3102 3102 3099 3097 3095 3092 3089 3087 3084 3081 3077 3075 3074 3072 3072 3070 3068 3066 3065 3063 3063 3061 3054 3051 3051 3052 3051 3051 3047 3044 3037 3030 3022 3015 3009
3117 3114 3111 3107 3104 3102 3102 3099 3100 3100 3101 3100 3099 3097 3095 3092 3090 3086 3084 3081 3079 3076 3076 3072 3071 3069 3067 3066 3066 3063 3064 3062 3060 3057 3055 3051 3051 3048 3046 3044 3039 3031 3024 3019 3014
3119 3116 3113 3111 3107 3105 3104 3101 3102 3103 3102 3100 3099 3097 3095 3093 3091 3088 3085 3084 3080 3078 3076 3074 3071 3069 3068 3066 3065 3064 3064 3064 3061 3057 3051 3049 3049 3048 3046 3043 3039 3034 3027 3023 3019
3120 3119 3115 3112 3112 3109 3107 3105 3103 3102 3102 3102 3099 3096 3094 3093 3090 3088 3087 3085 3081 3078 3076 3074 3074 3071 3068 3067 3065 3065 3063 3062 3062 3061 3055 3049 3047 3046 3044 3042 3039 3036 3032 3028 3022
3121 3119 3117 3115 3114 3109 3109 3107 3104 3103 3101 3101 3100 3098 3096 3092 3089 3087 3086 3084 3082 3079 3076 3074 3073 3069 3069 3066 3064 3063 3062 3060 3062 3062 3059 3057 3050 3045 3043 3041 3039 3037 3034 3031 3027
3120 3118 3116 3114 3112 3110 3108 3107 3106 3104 3101 3099 3098 3098 3096 3094 3092 3088 3086 3084 3081 3079 3077 3076 3073 3069 3066 3068 3064 3062 3061 3059 3058 3057 3057 3057 3050 3045 3043 3042 3040 3037 3035 3034 3030
3120 3118 3116 3113 3111 3111 3108 3107 3106 3105 3102 3100 3099 3097 3095 3093 3091 3088 3085 3083 3080 3078 3076 3075 3072 3071 3069 3066 3064 3060 3058 3056 3056 3054 3052 3049 3046 3045 3042 3040 3039 3037 3036 3035 3032
3118 3116 3115 3112 3110 3107 3107 3106 3105 3105 3104 3100 3098 3096 3094 3092 3090 3087 3084 3082 3079 3077 3075 3073 3069 3067 3065 3062 3060 3058 3056 3054 3052 3049 3047 3044 3041 3040 3039 3037 3036 3036 3035 3034 3032
3114 3113 3111 3109 3107 3106 3104 3103 3102 3101 3102 3101 3097 3094 3091 3089 3088 3084 3082 3079 3078 3075 3073 3071 3068 3063 3058 3057 3056 3053 3052 3051 3048 3046 3042 3039 3036 3035 3035 3034 3034 3033 3033 3033 3032
3110 3108 3107 3106 3104 3103 3101 3099 3097 3098 3097 3096 3095 3092 3090 3088 3085 3082 3079 3076 3074 3073 3071 3068 3065 3062 3056 3054 3053 3050 3047 3046 3046 3044 3041 3037 3035 3032 3030 3030 3031 3030 3030 3030 3030